{"data":{"norad_id":48595,"intl_designator":"2021-041AU","name":"STARLINK-2252","alt_names":[],"object_type":"PAYLOAD","status":"ACTIVE","operator":null,"country":"US","launch_date":"2021-05-15","launch_site_code":"AFETR","launch_vehicle":null,"mission":null,"orbit_class":"UNKNOWN","rcs_meters":null,"size_class":null,"mass_kg":null,"dimensions":null,"purposes":["comms"],"wikipedia_slug":null,"has_3d_model":false,"image_url":null,"decayed_at":null,"tle_current":{"epoch":"2026-09-19T15:55:37.089408Z","epoch_age_seconds":109542,"freshness":"FRESH","line1":"1 48595U 21041AU  26262.66362372  .00003769  00000+0  13311-3 0  9998","line2":"2 48595  53.1626 326.1837 0001857  98.7086 261.4126 15.31710011295946","mean_motion":15.31710011,"eccentricity":0.0001857,"inclination_deg":53.1626,"raan_deg":326.1837,"arg_perigee_deg":98.7086,"mean_anomaly_deg":261.4126,"bstar":0.00013311,"rev_number":29594,"period_min":94.012573506644,"perigee_km":469.43832220178,"apogee_km":471.98198403445,"semimajor_km":6848.8471531181,"source":"CELESTRAK","updated_at":"2026-09-20T09:00:39.138254Z"}}}